Weather in Gadzhievo

Russia / Murmansk Oblast     69°14′56″N   33°18′54″E
temp.,
°C
wind,
m/s
gust,
m/s
humid.,
%
clouds,
%
prec.,
mm/h
press.,
hPa
HPBL,
m
23 june, wed
wed2300:00+9n101496100 1.3 1015526
03:00+8n7119356 2.9 1018483
06:00+7n81083100 0.0 1021764
09:00+7n6779100 0.1 1023737
12:00+8ne557564 0.0 1024739
15:00+9ene556816 0.0 1024719
18:00+10ene666918 0.0 1023585
21:00+9e787356 0.0 1021324
24 june, thu
thu2400:00+8e6777100 0.0 1021312
03:00+8ese4678100 0.1 1020265
06:00+8e4579100 0.1 1018268
09:00+9e3474100 0.2 1017350
12:00+9e3373100 0.0 1017327
15:00+10ese447276 0.0 1017477
18:00+10se447634 0.0 1017493
21:00+10se447828 0.0 1017431
25 june, fri
fri2500:00+8se348843 0.0 101869
03:00+7se359112 0.0 1018129
06:00+10sse358298 0.0 1017242
09:00+13s45695 0.0 1016663
12:00+17s455620 0.0 1015969
15:00+19sw675597 0.2 10141199
18:00+15nw4680100 0.8 1014156
21:00+10nnw7995100 7.8 1016363
26 june, sat
sat2600:00+8nnw61092100 1.9 1018439
03:00+9nnw2682100 2.4 1018267
06:00+10n2373100 0.1 1019264
09:00+10nne2269100 0.1 1019519
12:00+11ne3266100 0.0 1020674
15:00+12e335910 0.0 1019806
18:00+12ese435813 0.0 1019783
21:00+11sse4466100 0.0 1019398
27 june, sun
sun2700:00+8sse337910 0.0 101952
03:00+8sse34815 0.0 101983
06:00+10sse46735 0.0 1018313
09:00+13s557013 0.0 1017551
12:00+16ssw3458100 0.0 1017883
15:00+18wsw124896 0.0 10161224
18:00+16ne445796 0.0 1017361
21:00+15e476899 0.0 1018166